Time,TemperatureF,DewpointF,PressureIn,WindDirection,WindDirectionDegrees,WindSpeedMPH,WindSpeedGustMPH,Humidity,HourlyPrecipIn,Conditions,Clouds,dailyrainin,SoftwareType,DateUTC
2013-03-29 00:00:00,38.9,29.9,30.27,NW,315,0.0,0.2,70,0.00,,,0.00,WUHU216HW,2013-03-29 04:00:00,
2013-03-29 00:05:00,38.9,29.9,30.28,NW,315,0.2,0.2,70,0.00,,,0.00,WUHU216HW,2013-03-29 04:05:00,
2013-03-29 00:10:00,38.9,29.9,30.28,NW,315,0.0,0.2,70,0.00,,,0.00,WUHU216HW,2013-03-29 04:10:00,
2013-03-29 00:15:00,38.9,29.5,30.28,NW,315,0.0,0.2,69,0.00,,,0.00,WUHU216HW,2013-03-29 04:15:00,
2013-03-29 00:20:00,38.9,29.5,30.28,NW,315,0.0,0.0,69,0.00,,,0.00,WUHU216HW,2013-03-29 04:20:00,
2013-03-29 00:25:00,38.7,29.8,30.28,NW,315,0.0,0.0,70,0.00,,,0.00,WUHU216HW,2013-03-29 04:25:00,
2013-03-29 00:30:00,38.7,29.8,30.28,NW,315,0.0,0.0,70,0.00,,,0.00,WUHU216HW,2013-03-29 04:30:00,
2013-03-29 00:35:00,38.7,29.8,30.28,NW,315,0.0,0.0,70,0.00,,,0.00,WUHU216HW,2013-03-29 04:35:00,
2013-03-29 00:40:00,38.7,29.8,30.28,NW,315,0.0,0.0,70,0.00,,,0.00,WUHU216HW,2013-03-29 04:40:00,
2013-03-29 00:45:00,38.5,29.6,30.28,NW,315,0.0,0.0,70,0.00,,,0.00,WUHU216HW,2013-03-29 04:45:00,
2013-03-29 00:50:00,38.5,29.6,30.28,NW,315,0.0,0.0,70,0.00,,,0.00,WUHU216HW,2013-03-29 04:50:00,
2013-03-29 00:55:00,38.5,29.6,30.28,NW,315,0.0,0.0,70,0.00,,,0.00,WUHU216HW,2013-03-29 04:55:00,
2013-03-29 01:00:00,38.5,29.6,30.28,NW,315,0.0,0.0,70,0.00,,,0.00,WUHU216HW,2013-03-29 05:00:00,
2013-03-29 01:05:00,38.5,29.6,30.28,NW,315,0.0,0.0,70,0.00,,,0.00,WUHU216HW,2013-03-29 05:05:00,
2013-03-29 01:10:00,38.3,29.8,30.28,NW,315,0.0,0.0,71,0.00,,,0.00,WUHU216HW,2013-03-29 05:10:00,
2013-03-29 01:15:00,38.3,29.8,30.28,NW,315,0.0,0.0,71,0.00,,,0.00,WUHU216HW,2013-03-29 05:15:00,
2013-03-29 01:20:00,38.3,29.8,30.28,NW,315,0.0,0.0,71,0.00,,,0.00,WUHU216HW,2013-03-29 05:20:00,
2013-03-29 01:25:00,38.3,29.8,30.28,NW,315,0.0,0.0,71,0.00,,,0.00,WUHU216HW,2013-03-29 05:25:00,
2013-03-29 01:30:00,38.2,29.6,30.28,NW,315,0.0,0.0,71,0.00,,,0.00,WUHU216HW,2013-03-29 05:30:00,
2013-03-29 01:35:00,38.2,29.6,30.28,NW,315,0.0,0.0,71,0.00,,,0.00,WUHU216HW,2013-03-29 05:35:00,
2013-03-29 01:40:00,38.2,29.6,30.28,NW,315,0.0,0.0,71,0.00,,,0.00,WUHU216HW,2013-03-29 05:40:00,
2013-03-29 01:45:00,38.0,29.4,30.28,NW,315,0.0,0.0,71,0.00,,,0.00,WUHU216HW,2013-03-29 05:45:00,
2013-03-29 01:50:00,38.0,29.4,30.28,NW,315,0.0,0.0,71,0.00,,,0.00,WUHU216HW,2013-03-29 05:50:00,
2013-03-29 01:55:00,38.0,29.4,30.28,NW,315,0.0,0.0,71,0.00,,,0.00,WUHU216HW,2013-03-29 05:55:00,
2013-03-29 02:00:00,38.0,29.4,30.28,NW,315,0.0,0.0,71,0.00,,,0.00,WUHU216HW,2013-03-29 06:00:00,
2013-03-29 02:05:00,38.0,29.4,30.28,NW,315,0.0,0.0,71,0.00,,,0.00,WUHU216HW,2013-03-29 06:05:00,
2013-03-29 02:10:00,37.8,29.3,30.28,NW,315,0.0,0.0,71,0.00,,,0.00,WUHU216HW,2013-03-29 06:10:00,
2013-03-29 02:15:00,37.8,29.3,30.28,NW,315,0.0,0.0,71,0.00,,,0.00,WUHU216HW,2013-03-29 06:15:00,
2013-03-29 02:20:00,37.8,29.3,30.28,NW,315,0.0,0.0,71,0.00,,,0.00,WUHU216HW,2013-03-29 06:20:00,
2013-03-29 02:25:00,37.8,29.3,30.28,NW,315,0.0,0.0,71,0.00,,,0.00,WUHU216HW,2013-03-29 06:25:00,
2013-03-29 02:30:00,37.8,29.3,30.28,NW,315,0.0,0.0,71,0.00,,,0.00,WUHU216HW,2013-03-29 06:30:00,
2013-03-29 02:35:00,37.8,29.3,30.28,NW,315,0.0,0.0,71,0.00,,,0.00,WUHU216HW,2013-03-29 06:35:00,
2013-03-29 02:40:00,37.8,29.6,30.28,NW,315,0.0,0.0,72,0.00,,,0.00,WUHU216HW,2013-03-29 06:40:00,
2013-03-29 02:45:00,37.8,29.6,30.27,NW,315,0.0,0.0,72,0.00,,,0.00,WUHU216HW,2013-03-29 06:45:00,
2013-03-29 02:50:00,37.6,29.4,30.27,NW,315,0.0,0.0,72,0.00,,,0.00,WUHU216HW,2013-03-29 06:50:00,
2013-03-29 02:55:00,37.6,29.4,30.28,NW,315,0.0,0.0,72,0.00,,,0.00,WUHU216HW,2013-03-29 06:55:00,
2013-03-29 03:00:00,37.6,29.4,30.27,NW,315,0.0,0.0,72,0.00,,,0.00,WUHU216HW,2013-03-29 07:00:00,
2013-03-29 03:05:00,37.6,29.4,30.27,NW,315,0.0,0.0,72,0.00,,,0.00,WUHU216HW,2013-03-29 07:05:00,
2013-03-29 03:10:00,37.4,29.3,30.27,NW,315,0.0,0.0,72,0.00,,,0.00,WUHU216HW,2013-03-29 07:10:00,
2013-03-29 03:15:00,37.4,29.6,30.27,NW,315,0.0,0.0,73,0.00,,,0.00,WUHU216HW,2013-03-29 07:15:00,
2013-03-29 03:20:00,37.4,29.6,30.27,NW,315,0.0,0.0,73,0.00,,,0.00,WUHU216HW,2013-03-29 07:20:00,
2013-03-29 03:25:00,37.4,29.6,30.27,NW,315,0.0,0.0,73,0.00,,,0.00,WUHU216HW,2013-03-29 07:25:00,
2013-03-29 03:30:00,37.4,29.6,30.27,NW,315,0.0,0.0,73,0.00,,,0.00,WUHU216HW,2013-03-29 07:30:00,
2013-03-29 03:35:00,37.4,29.6,30.27,NW,315,0.0,0.0,73,0.00,,,0.00,WUHU216HW,2013-03-29 07:35:00,
2013-03-29 03:40:00,37.4,29.6,30.27,NW,315,0.0,0.0,73,0.00,,,0.00,WUHU216HW,2013-03-29 07:40:00,
2013-03-29 03:45:00,37.4,29.6,30.26,NW,315,0.0,0.0,73,0.00,,,0.00,WUHU216HW,2013-03-29 07:45:00,
2013-03-29 03:50:00,37.4,29.9,30.26,NW,315,0.0,0.0,74,0.00,,,0.00,WUHU216HW,2013-03-29 07:50:00,
2013-03-29 03:55:00,37.6,30.1,30.26,NW,315,0.0,0.0,74,0.00,,,0.00,WUHU216HW,2013-03-29 07:55:00,
2013-03-29 04:00:00,37.6,30.1,30.26,NW,315,0.0,0.0,74,0.00,,,0.00,WUHU216HW,2013-03-29 08:00:00,
2013-03-29 04:05:00,37.6,30.1,30.26,NW,315,0.0,0.0,74,0.00,,,0.00,WUHU216HW,2013-03-29 08:05:00,
2013-03-29 04:10:00,37.6,30.1,30.26,NW,315,0.0,0.0,74,0.00,,,0.00,WUHU216HW,2013-03-29 08:10:00,
2013-03-29 04:15:00,37.6,29.8,30.26,NW,315,0.0,0.0,73,0.00,,,0.00,WUHU216HW,2013-03-29 08:15:00,
2013-03-29 04:20:00,37.6,29.8,30.25,NW,315,0.0,0.0,73,0.00,,,0.00,WUHU216HW,2013-03-29 08:20:00,
2013-03-29 04:25:00,37.6,29.8,30.25,NW,315,0.0,0.0,73,0.00,,,0.00,WUHU216HW,2013-03-29 08:25:00,
2013-03-29 04:30:00,37.6,29.8,30.25,NW,315,0.0,0.0,73,0.00,,,0.00,WUHU216HW,2013-03-29 08:30:00,
2013-03-29 04:35:00,37.4,29.6,30.25,NW,315,0.0,0.0,73,0.00,,,0.00,WUHU216HW,2013-03-29 08:35:00,
2013-03-29 04:40:00,37.4,29.6,30.25,NW,315,0.0,0.0,73,0.00,,,0.00,WUHU216HW,2013-03-29 08:40:00,
2013-03-29 04:45:00,37.4,29.6,30.25,NW,315,0.0,0.0,73,0.00,,,0.00,WUHU216HW,2013-03-29 08:45:00,
2013-03-29 04:50:00,37.4,29.6,30.25,NW,315,0.0,0.0,73,0.00,,,0.00,WUHU216HW,2013-03-29 08:50:00,
2013-03-29 04:55:00,37.4,29.6,30.25,NW,315,0.0,0.0,73,0.00,,,0.00,WUHU216HW,2013-03-29 08:55:00,
2013-03-29 05:00:00,37.4,29.6,30.25,NW,315,0.0,0.0,73,0.00,,,0.00,WUHU216HW,2013-03-29 09:00:00,
2013-03-29 05:05:00,37.4,29.6,30.25,NW,315,0.0,0.0,73,0.00,,,0.00,WUHU216HW,2013-03-29 09:05:00,
2013-03-29 05:10:00,37.4,29.6,30.25,NW,315,0.0,0.0,73,0.00,,,0.00,WUHU216HW,2013-03-29 09:10:00,
2013-03-29 05:15:00,37.3,29.4,30.25,NW,315,0.0,0.0,73,0.00,,,0.00,WUHU216HW,2013-03-29 09:15:00,
2013-03-29 05:20:00,37.3,29.4,30.25,NW,315,0.0,0.0,73,0.00,,,0.00,WUHU216HW,2013-03-29 09:20:00,
2013-03-29 05:25:00,37.3,29.4,30.25,NW,315,0.0,0.0,73,0.00,,,0.00,WUHU216HW,2013-03-29 09:25:00,
2013-03-29 05:30:00,37.4,29.6,30.25,NW,315,0.0,0.0,73,0.00,,,0.00,WUHU216HW,2013-03-29 09:30:00,
2013-03-29 05:35:00,37.6,29.4,30.25,NW,315,0.0,0.0,72,0.00,,,0.00,WUHU216HW,2013-03-29 09:35:00,
2013-03-29 05:40:00,37.6,29.4,30.25,NW,315,0.0,0.0,72,0.00,,,0.00,WUHU216HW,2013-03-29 09:40:00,
2013-03-29 05:45:00,37.6,29.4,30.25,NW,315,0.0,0.0,72,0.00,,,0.00,WUHU216HW,2013-03-29 09:45:00,
2013-03-29 05:50:00,37.6,29.4,30.25,NW,315,0.0,0.0,72,0.00,,,0.00,WUHU216HW,2013-03-29 09:50:00,
2013-03-29 05:55:00,37.4,29.3,30.26,NW,315,0.0,0.0,72,0.00,,,0.00,WUHU216HW,2013-03-29 09:55:00,
2013-03-29 06:00:00,37.4,29.3,30.25,NW,315,0.0,0.0,72,0.00,,,0.00,WUHU216HW,2013-03-29 10:00:00,
2013-03-29 06:05:00,37.3,29.1,30.26,NW,315,0.0,0.0,72,0.00,,,0.00,WUHU216HW,2013-03-29 10:05:00,
2013-03-29 06:10:00,37.3,29.1,30.26,NW,315,0.0,0.0,72,0.00,,,0.00,WUHU216HW,2013-03-29 10:10:00,
2013-03-29 06:15:00,37.3,29.1,30.25,NW,315,0.0,0.0,72,0.00,,,0.00,WUHU216HW,2013-03-29 10:15:00,
2013-03-29 06:20:00,37.3,29.1,30.25,NW,315,0.0,0.0,72,0.00,,,0.00,WUHU216HW,2013-03-29 10:20:00,
2013-03-29 06:25:00,37.3,29.1,30.25,NW,315,0.0,0.0,72,0.00,,,0.00,WUHU216HW,2013-03-29 10:25:00,
2013-03-29 06:30:00,37.3,29.1,30.26,NW,315,0.0,0.0,72,0.00,,,0.00,WUHU216HW,2013-03-29 10:30:00,
2013-03-29 06:35:00,37.3,29.1,30.26,NW,315,0.0,0.0,72,0.00,,,0.00,WUHU216HW,2013-03-29 10:35:00,
2013-03-29 06:40:00,37.3,29.1,30.25,NW,315,0.0,0.4,72,0.00,,,0.00,WUHU216HW,2013-03-29 10:40:00,
2013-03-29 06:45:00,37.3,29.1,30.26,West,270,0.4,0.4,72,0.00,,,0.00,WUHU216HW,2013-03-29 10:45:00,
2013-03-29 06:50:00,37.3,29.1,30.25,NNW,338,0.0,0.4,72,0.00,,,0.00,WUHU216HW,2013-03-29 10:50:00,
2013-03-29 06:55:00,37.3,29.1,30.25,NNW,338,0.0,0.0,72,0.00,,,0.00,WUHU216HW,2013-03-29 10:55:00,
2013-03-29 07:00:00,37.3,29.1,30.26,NNW,338,0.0,0.0,72,0.00,,,0.00,WUHU216HW,2013-03-29 11:00:00,
2013-03-29 07:05:00,37.3,29.1,30.26,NW,315,0.0,0.2,72,0.00,,,0.00,WUHU216HW,2013-03-29 11:05:00,
2013-03-29 07:10:00,37.3,29.1,30.26,NW,315,0.0,0.2,72,0.00,,,0.00,WUHU216HW,2013-03-29 11:10:00,
2013-03-29 07:15:00,37.3,29.1,30.26,WNW,293,0.4,0.4,72,0.00,,,0.00,WUHU216HW,2013-03-29 11:15:00,
2013-03-29 07:20:00,37.4,29.3,30.26,NW,315,0.0,0.4,72,0.00,,,0.00,WUHU216HW,2013-03-29 11:20:00,
2013-03-29 07:25:00,37.4,29.3,30.26,NW,315,0.2,0.4,72,0.00,,,0.00,WUHU216HW,2013-03-29 11:25:00,
2013-03-29 07:30:00,37.3,29.1,30.26,NW,315,0.0,0.2,72,0.00,,,0.00,WUHU216HW,2013-03-29 11:30:00,
2013-03-29 07:35:00,37.4,29.3,30.27,West,270,0.4,0.4,72,0.00,,,0.00,WUHU216HW,2013-03-29 11:35:00,
2013-03-29 07:40:00,37.4,29.3,30.26,WNW,293,0.0,0.7,72,0.00,,,0.00,WUHU216HW,2013-03-29 11:40:00,
2013-03-29 07:45:00,37.4,29.3,30.27,NW,315,0.0,0.7,72,0.00,,,0.00,WUHU216HW,2013-03-29 11:45:00,
2013-03-29 07:50:00,37.4,29.3,30.26,NW,315,0.0,0.2,72,0.00,,,0.00,WUHU216HW,2013-03-29 11:50:00,
2013-03-29 07:55:00,37.4,29.3,30.26,WNW,293,0.0,0.2,72,0.00,,,0.00,WUHU216HW,2013-03-29 11:55:00,
2013-03-29 08:00:00,37.4,29.0,30.27,NW,315,0.0,0.2,71,0.00,,,0.00,WUHU216HW,2013-03-29 12:00:00,
2013-03-29 08:05:00,37.6,29.1,30.26,NW,315,0.0,0.2,71,0.00,,,0.00,WUHU216HW,2013-03-29 12:05:00,
2013-03-29 08:10:00,37.6,29.1,30.27,NW,315,0.0,0.2,71,0.00,,,0.00,WUHU216HW,2013-03-29 12:10:00,
2013-03-29 08:15:00,37.6,29.1,30.26,NNW,338,0.0,0.2,71,0.00,,,0.00,WUHU216HW,2013-03-29 12:15:00,
2013-03-29 08:20:00,37.6,29.1,30.27,SSW,203,0.0,1.1,71,0.00,,,0.00,WUHU216HW,2013-03-29 12:20:00,
2013-03-29 08:25:00,37.8,29.3,30.27,SW,225,0.0,1.1,71,0.00,,,0.00,WUHU216HW,2013-03-29 12:25:00,
2013-03-29 08:30:00,37.8,29.3,30.27,NW,315,0.0,1.1,71,0.00,,,0.00,WUHU216HW,2013-03-29 12:30:00,
2013-03-29 08:35:00,37.8,29.3,30.27,WNW,293,0.0,1.1,71,0.00,,,0.00,WUHU216HW,2013-03-29 12:35:00,
2013-03-29 08:40:00,38.0,29.4,30.27,WNW,293,0.0,1.1,71,0.00,,,0.00,WUHU216HW,2013-03-29 12:40:00,
2013-03-29 08:45:00,38.2,29.6,30.27,WNW,293,0.0,1.1,71,0.00,,,0.00,WUHU216HW,2013-03-29 12:45:00,
2013-03-29 08:50:00,38.3,29.4,30.27,WSW,248,0.0,1.1,70,0.00,,,0.00,WUHU216HW,2013-03-29 12:50:00,
2013-03-29 08:55:00,38.5,29.6,30.27,NW,315,0.4,0.9,70,0.00,,,0.00,WUHU216HW,2013-03-29 12:55:00,
2013-03-29 09:00:00,38.7,29.8,30.27,SSW,203,0.4,0.9,70,0.00,,,0.00,WUHU216HW,2013-03-29 13:00:00,
2013-03-29 09:05:00,39.1,30.1,30.27,West,270,0.0,0.9,70,0.00,,,0.00,WUHU216HW,2013-03-29 13:05:00,
2013-03-29 09:10:00,39.2,29.9,30.27,West,270,0.4,1.3,69,0.00,,,0.00,WUHU216HW,2013-03-29 13:10:00,
2013-03-29 09:15:00,39.6,29.9,30.27,West,270,0.4,1.6,68,0.00,,,0.00,WUHU216HW,2013-03-29 13:15:00,
2013-03-29 09:20:00,39.8,29.6,30.27,WNW,293,0.0,1.6,67,0.00,,,0.00,WUHU216HW,2013-03-29 13:20:00,
2013-03-29 09:25:00,40.0,30.3,30.27,WNW,293,0.4,1.1,68,0.00,,,0.00,WUHU216HW,2013-03-29 13:25:00,
2013-03-29 09:30:00,40.5,30.3,30.27,SW,225,0.0,0.4,67,0.00,,,0.00,WUHU216HW,2013-03-29 13:30:00,
2013-03-29 09:35:00,41.0,30.9,30.27,NNW,338,1.8,1.8,67,0.00,,,0.00,WUHU216HW,2013-03-29 13:35:00,
2013-03-29 09:40:00,41.4,30.9,30.27,SSW,203,0.0,4.0,66,0.00,,,0.00,WUHU216HW,2013-03-29 13:40:00,
2013-03-29 09:45:00,41.0,29.8,30.27,NW,315,2.2,4.0,64,0.00,,,0.00,WUHU216HW,2013-03-29 13:45:00,
2013-03-29 09:50:00,41.0,30.2,30.27,West,270,0.0,3.1,65,0.00,,,0.00,WUHU216HW,2013-03-29 13:50:00,
2013-03-29 09:55:00,41.4,30.9,30.27,NW,315,0.7,2.2,66,0.00,,,0.00,WUHU216HW,2013-03-29 13:55:00,
2013-03-29 10:00:00,41.4,30.5,30.27,West,270,0.0,1.1,65,0.00,,,0.00,WUHU216HW,2013-03-29 14:00:00,
2013-03-29 10:05:00,41.6,30.7,30.27,West,270,0.0,1.6,65,0.00,,,0.00,WUHU216HW,2013-03-29 14:05:00,
2013-03-29 10:10:00,41.9,30.6,30.27,NW,315,0.0,1.6,64,0.00,,,0.00,WUHU216HW,2013-03-29 14:10:00,
2013-03-29 10:15:00,42.5,30.7,30.27,NW,315,0.4,3.1,63,0.00,,,0.00,WUHU216HW,2013-03-29 14:15:00,
2013-03-29 10:20:00,42.5,30.7,30.27,West,270,0.0,3.1,63,0.00,,,0.00,WUHU216HW,2013-03-29 14:20:00,
2013-03-29 10:25:00,42.7,30.9,30.27,SW,225,1.6,1.6,63,0.00,,,0.00,WUHU216HW,2013-03-29 14:25:00,
2013-03-29 10:30:00,42.8,31.1,30.27,WSW,248,0.2,1.6,63,0.00,,,0.00,WUHU216HW,2013-03-29 14:30:00,
2013-03-29 10:35:00,42.8,30.7,30.27,SW,225,0.7,1.6,62,0.00,,,0.00,WUHU216HW,2013-03-29 14:35:00,
2013-03-29 10:40:00,42.8,31.5,30.27,SW,225,0.4,0.7,64,0.00,,,0.00,WUHU216HW,2013-03-29 14:40:00,
2013-03-29 10:45:00,43.2,31.8,30.27,SW,225,0.7,0.7,64,0.00,,,0.00,WUHU216HW,2013-03-29 14:45:00,
2013-03-29 10:50:00,43.7,32.3,30.26,SSW,203,0.0,1.8,64,0.00,,,0.00,WUHU216HW,2013-03-29 14:50:00,
2013-03-29 10:55:00,44.1,31.5,30.27,NW,315,0.4,1.8,61,0.00,,,0.00,WUHU216HW,2013-03-29 14:55:00,
2013-03-29 11:00:00,44.6,32.4,30.27,NW,315,1.6,1.6,62,0.00,,,0.00,WUHU216HW,2013-03-29 15:00:00,
2013-03-29 11:05:00,45.7,32.2,30.26,East,90,1.1,1.6,59,0.00,,,0.00,WUHU216HW,2013-03-29 15:05:00,
2013-03-29 11:10:00,46.4,33.3,30.27,WNW,293,1.6,1.8,60,0.00,,,0.00,WUHU216HW,2013-03-29 15:10:00,
2013-03-29 11:15:00,46.8,33.2,30.27,SSW,203,1.1,1.8,59,0.00,,,0.00,WUHU216HW,2013-03-29 15:15:00,
2013-03-29 11:20:00,47.3,34.6,30.27,West,270,0.0,1.1,61,0.00,,,0.00,WUHU216HW,2013-03-29 15:20:00,
2013-03-29 11:25:00,47.7,34.1,30.26,West,270,0.2,0.9,59,0.00,,,0.00,WUHU216HW,2013-03-29 15:25:00,
2013-03-29 11:30:00,47.5,33.9,30.26,NNW,338,0.0,0.7,59,0.00,,,0.00,WUHU216HW,2013-03-29 15:30:00,
2013-03-29 11:35:00,47.5,33.0,30.26,West,270,0.2,0.7,57,0.00,,,0.00,WUHU216HW,2013-03-29 15:35:00,
2013-03-29 11:40:00,47.5,32.6,30.26,NNW,338,1.8,1.8,56,0.00,,,0.00,WUHU216HW,2013-03-29 15:40:00,
2013-03-29 11:45:00,47.7,32.2,30.26,NNW,338,1.1,1.8,55,0.00,,,0.00,WUHU216HW,2013-03-29 15:45:00,
2013-03-29 11:50:00,48.2,33.7,30.26,North,0,0.4,1.8,57,0.00,,,0.00,WUHU216HW,2013-03-29 15:50:00,
2013-03-29 11:55:00,48.6,33.1,30.26,SW,225,0.4,1.1,55,0.00,,,0.00,WUHU216HW,2013-03-29 15:55:00,
2013-03-29 12:00:00,50.0,34.9,30.26,WNW,293,0.7,1.1,56,0.00,,,0.00,WUHU216HW,2013-03-29 16:00:00,
2013-03-29 12:05:00,50.8,33.3,30.25,ESE,113,1.3,1.8,51,0.00,,,0.00,WUHU216HW,2013-03-29 16:05:00,
2013-03-29 12:10:00,50.9,33.9,30.25,West,270,0.4,1.8,52,0.00,,,0.00,WUHU216HW,2013-03-29 16:10:00,
2013-03-29 12:15:00,49.7,31.3,30.25,West,270,0.2,3.4,49,0.00,,,0.00,WUHU216HW,2013-03-29 16:15:00,
2013-03-29 12:20:00,48.6,28.6,30.25,WNW,293,2.9,4.0,46,0.00,,,0.00,WUHU216HW,2013-03-29 16:20:00,
2013-03-29 12:25:00,48.2,29.3,30.25,NNW,338,2.0,4.0,48,0.00,,,0.00,WUHU216HW,2013-03-29 16:25:00,
2013-03-29 12:30:00,48.2,29.3,30.24,West,270,1.3,3.4,48,0.00,,,0.00,WUHU216HW,2013-03-29 16:30:00,
2013-03-29 12:35:00,49.3,30.4,30.25,WSW,248,1.3,3.4,48,0.00,,,0.00,WUHU216HW,2013-03-29 16:35:00,
2013-03-29 12:40:00,49.7,30.8,30.24,SW,225,0.0,2.9,48,0.00,,,0.00,WUHU216HW,2013-03-29 16:40:00,
2013-03-29 12:45:00,49.7,30.3,30.24,NW,315,0.9,1.6,47,0.00,,,0.00,WUHU216HW,2013-03-29 16:45:00,
2013-03-29 12:50:00,49.5,30.1,30.24,West,270,1.1,1.6,47,0.00,,,0.00,WUHU216HW,2013-03-29 16:50:00,
2013-03-29 12:55:00,49.0,26.2,30.24,NW,315,5.4,5.4,41,0.00,,,0.00,WUHU216HW,2013-03-29 16:55:00,
2013-03-29 13:00:00,48.2,23.7,30.23,WNW,293,1.6,5.4,38,0.00,,,0.00,WUHU216HW,2013-03-29 17:00:00,
2013-03-29 13:05:00,48.4,25.8,30.23,NW,315,2.5,3.8,41,0.00,,,0.00,WUHU216HW,2013-03-29 17:05:00,
2013-03-29 13:10:00,48.6,27.0,30.23,WNW,293,4.0,4.0,43,0.00,,,0.00,WUHU216HW,2013-03-29 17:10:00,
2013-03-29 13:15:00,48.8,27.2,30.23,NW,315,0.4,4.0,43,0.00,,,0.00,WUHU216HW,2013-03-29 17:15:00,
2013-03-29 13:20:00,48.6,27.0,30.23,NW,315,0.7,4.0,43,0.00,,,0.00,WUHU216HW,2013-03-29 17:20:00,
2013-03-29 13:25:00,49.1,28.6,30.23,SSW,203,0.4,4.0,45,0.00,,,0.00,WUHU216HW,2013-03-29 17:25:00,
2013-03-29 13:30:00,50.0,28.4,30.23,WNW,293,1.6,2.2,43,0.00,,,0.00,WUHU216HW,2013-03-29 17:30:00,
2013-03-29 13:35:00,51.7,29.3,30.22,West,270,1.8,2.2,42,0.00,,,0.00,WUHU216HW,2013-03-29 17:35:00,
2013-03-29 13:40:00,52.0,27.7,30.22,West,270,4.7,4.7,39,0.00,,,0.00,WUHU216HW,2013-03-29 17:40:00,
2013-03-29 13:45:00,50.8,25.9,30.22,West,270,4.3,4.7,38,0.00,,,0.00,WUHU216HW,2013-03-29 17:45:00,
2013-03-29 13:50:00,50.2,26.1,30.22,West,270,2.5,4.3,39,0.00,,,0.00,WUHU216HW,2013-03-29 17:50:00,
2013-03-29 13:55:00,49.7,25.7,30.22,West,270,1.1,4.0,39,0.00,,,0.00,WUHU216HW,2013-03-29 17:55:00,
2013-03-29 14:00:00,49.5,25.5,30.22,West,270,0.4,3.6,39,0.00,,,0.00,WUHU216HW,2013-03-29 18:00:00,
2013-03-29 14:05:00,49.9,26.5,30.22,NW,315,1.1,3.6,40,0.00,,,0.00,WUHU216HW,2013-03-29 18:05:00,
2013-03-29 14:10:00,50.4,27.0,30.21,NW,315,3.1,5.4,40,0.00,,,0.00,WUHU216HW,2013-03-29 18:10:00,
2013-03-29 14:15:00,50.9,27.5,30.21,WSW,248,1.6,5.4,40,0.00,,,0.00,WUHU216HW,2013-03-29 18:15:00,
2013-03-29 14:20:00,50.9,26.7,30.21,WNW,293,0.9,2.5,39,0.00,,,0.00,WUHU216HW,2013-03-29 18:20:00,
2013-03-29 14:25:00,50.9,26.7,30.21,WNW,293,1.1,4.9,39,0.00,,,0.00,WUHU216HW,2013-03-29 18:25:00,
2013-03-29 14:30:00,50.8,26.7,30.21,West,270,1.8,4.9,39,0.00,,,0.00,WUHU216HW,2013-03-29 18:30:00,
2013-03-29 14:35:00,51.7,27.5,30.21,West,270,2.5,2.7,39,0.00,,,0.00,WUHU216HW,2013-03-29 18:35:00,
2013-03-29 14:40:00,50.9,26.1,30.20,WNW,293,0.9,3.1,38,0.00,,,0.00,WUHU216HW,2013-03-29 18:40:00,
2013-03-29 14:45:00,50.8,26.7,30.20,West,270,1.3,3.1,39,0.00,,,0.00,WUHU216HW,2013-03-29 18:45:00,
2013-03-29 14:50:00,50.8,25.9,30.20,WNW,293,1.3,1.8,38,0.00,,,0.00,WUHU216HW,2013-03-29 18:50:00,
2013-03-29 14:55:00,51.3,26.4,30.20,SW,225,1.6,2.5,38,0.00,,,0.00,WUHU216HW,2013-03-29 18:55:00,
2013-03-29 15:00:00,51.8,26.9,30.20,West,270,1.1,2.5,38,0.00,,,0.00,WUHU216HW,2013-03-29 19:00:00,
2013-03-29 15:05:00,52.6,26.8,30.20,WSW,248,1.3,1.8,37,0.00,,,0.00,WUHU216HW,2013-03-29 19:05:00,
2013-03-29 15:10:00,52.0,26.4,30.20,WNW,293,1.1,2.5,37,0.00,,,0.00,WUHU216HW,2013-03-29 19:10:00,
2013-03-29 15:15:00,51.5,25.2,30.20,NW,315,3.4,5.6,36,0.00,,,0.00,WUHU216HW,2013-03-29 19:15:00,
2013-03-29 15:20:00,50.9,25.4,30.19,WNW,293,1.3,5.6,37,0.00,,,0.00,WUHU216HW,2013-03-29 19:20:00,
2013-03-29 15:25:00,50.8,25.2,30.19,NNW,338,1.1,3.8,37,0.00,,,0.00,WUHU216HW,2013-03-29 19:25:00,
2013-03-29 15:30:00,51.3,26.4,30.19,WNW,293,0.4,4.5,38,0.00,,,0.00,WUHU216HW,2013-03-29 19:30:00,
2013-03-29 15:35:00,51.5,26.6,30.19,West,270,1.1,4.5,38,0.00,,,0.00,WUHU216HW,2013-03-29 19:35:00,
2013-03-29 15:40:00,50.9,25.4,30.19,NW,315,3.4,4.3,37,0.00,,,0.00,WUHU216HW,2013-03-29 19:40:00,
2013-03-29 15:45:00,51.5,26.6,30.18,NW,315,3.1,4.3,38,0.00,,,0.00,WUHU216HW,2013-03-29 19:45:00,
2013-03-29 15:50:00,52.7,27.7,30.18,SW,225,0.4,3.1,38,0.00,,,0.00,WUHU216HW,2013-03-29 19:50:00,
2013-03-29 15:55:00,54.2,26.2,30.18,West,270,0.4,2.9,34,0.00,,,0.00,WUHU216HW,2013-03-29 19:55:00,
2013-03-29 16:00:00,55.1,26.3,30.18,SW,225,2.5,2.9,33,0.00,,,0.00,WUHU216HW,2013-03-29 20:00:00,
2013-03-29 16:05:00,55.8,26.9,30.18,NW,315,4.3,4.3,33,0.00,,,0.00,WUHU216HW,2013-03-29 20:05:00,
2013-03-29 16:10:00,54.7,24.6,30.18,WNW,293,2.0,4.3,31,0.00,,,0.00,WUHU216HW,2013-03-29 20:10:00,
2013-03-29 16:15:00,53.6,24.4,30.18,WSW,248,1.8,4.0,32,0.00,,,0.00,WUHU216HW,2013-03-29 20:15:00,
2013-03-29 16:20:00,52.7,24.3,30.18,WSW,248,0.4,4.0,33,0.00,,,0.00,WUHU216HW,2013-03-29 20:20:00,
2013-03-29 16:25:00,52.6,24.1,30.18,NNW,338,0.9,4.0,33,0.00,,,0.00,WUHU216HW,2013-03-29 20:25:00,
2013-03-29 16:30:00,52.2,23.8,30.18,WSW,248,3.4,3.4,33,0.00,,,0.00,WUHU216HW,2013-03-29 20:30:00,
2013-03-29 16:35:00,51.8,24.1,30.18,NNW,338,0.0,3.4,34,0.00,,,0.00,WUHU216HW,2013-03-29 20:35:00,
2013-03-29 16:40:00,51.8,23.5,30.18,NW,315,4.7,4.7,33,0.00,,,0.00,WUHU216HW,2013-03-29 20:40:00,
2013-03-29 16:45:00,51.7,22.6,30.18,NW,315,1.6,4.7,32,0.00,,,0.00,WUHU216HW,2013-03-29 20:45:00,
2013-03-29 16:50:00,51.8,23.5,30.17,NNW,338,0.0,3.1,33,0.00,,,0.00,WUHU216HW,2013-03-29 20:50:00,
2013-03-29 16:55:00,52.0,23.7,30.18,WNW,293,0.4,3.4,33,0.00,,,0.00,WUHU216HW,2013-03-29 20:55:00,
2013-03-29 17:00:00,51.7,23.3,30.17,WNW,293,3.4,4.0,33,0.00,,,0.00,WUHU216HW,2013-03-29 21:00:00,
2013-03-29 17:05:00,51.3,23.0,30.17,WNW,293,1.3,4.0,33,0.00,,,0.00,WUHU216HW,2013-03-29 21:05:00,
2013-03-29 17:10:00,51.3,23.7,30.17,West,270,0.2,3.4,34,0.00,,,0.00,WUHU216HW,2013-03-29 21:10:00,
2013-03-29 17:15:00,51.1,23.5,30.17,NW,315,1.8,2.5,34,0.00,,,0.00,WUHU216HW,2013-03-29 21:15:00,
2013-03-29 17:20:00,50.8,22.5,30.17,NW,315,2.0,2.0,33,0.00,,,0.00,WUHU216HW,2013-03-29 21:20:00,
2013-03-29 17:25:00,50.9,24.0,30.17,NW,315,1.6,2.0,35,0.00,,,0.00,WUHU216HW,2013-03-29 21:25:00,
2013-03-29 17:30:00,51.7,24.0,30.17,North,0,2.5,2.5,34,0.00,,,0.00,WUHU216HW,2013-03-29 21:30:00,
2013-03-29 17:35:00,52.0,23.0,30.17,West,270,2.5,8.3,32,0.00,,,0.00,WUHU216HW,2013-03-29 21:35:00,
2013-03-29 17:40:00,51.7,22.6,30.17,NW,315,1.1,8.3,32,0.00,,,0.00,WUHU216HW,2013-03-29 21:40:00,
2013-03-29 17:45:00,50.9,22.7,30.18,WNW,293,1.8,4.0,33,0.00,,,0.00,WUHU216HW,2013-03-29 21:45:00,
2013-03-29 17:50:00,50.8,22.5,30.17,West,270,2.5,4.0,33,0.00,,,0.00,WUHU216HW,2013-03-29 21:50:00,
2013-03-29 17:55:00,50.2,22.7,30.17,NW,315,1.8,3.6,34,0.00,,,0.00,WUHU216HW,2013-03-29 21:55:00,
2013-03-29 18:00:00,50.0,22.5,30.18,West,270,2.0,3.6,34,0.00,,,0.00,WUHU216HW,2013-03-29 22:00:00,
2013-03-29 18:05:00,50.0,22.5,30.17,West,270,3.1,3.1,34,0.00,,,0.00,WUHU216HW,2013-03-29 22:05:00,
2013-03-29 18:10:00,50.2,22.7,30.17,SW,225,1.1,3.1,34,0.00,,,0.00,WUHU216HW,2013-03-29 22:10:00,
2013-03-29 18:15:00,50.9,23.3,30.17,SW,225,2.5,3.1,34,0.00,,,0.00,WUHU216HW,2013-03-29 22:15:00,
2013-03-29 18:20:00,50.6,22.3,30.17,WNW,293,4.0,4.0,33,0.00,,,0.00,WUHU216HW,2013-03-29 22:20:00,
2013-03-29 18:25:00,50.0,22.5,30.17,NW,315,1.3,4.0,34,0.00,,,0.00,WUHU216HW,2013-03-29 22:25:00,
2013-03-29 18:30:00,49.9,23.0,30.18,NW,315,2.5,4.0,35,0.00,,,0.00,WUHU216HW,2013-03-29 22:30:00,
2013-03-29 18:35:00,49.3,22.6,30.18,West,270,4.5,4.5,35,0.00,,,0.00,WUHU216HW,2013-03-29 22:35:00,
2013-03-29 18:40:00,49.1,23.1,30.18,East,90,1.1,4.5,36,0.00,,,0.00,WUHU216HW,2013-03-29 22:40:00,
2013-03-29 18:45:00,49.1,23.1,30.18,West,270,0.4,3.4,36,0.00,,,0.00,WUHU216HW,2013-03-29 22:45:00,
2013-03-29 18:50:00,49.3,23.3,30.18,NNW,338,0.7,5.4,36,0.00,,,0.00,WUHU216HW,2013-03-29 22:50:00,
2013-03-29 18:55:00,49.5,24.1,30.18,NW,315,0.4,5.4,37,0.00,,,0.00,WUHU216HW,2013-03-29 22:55:00,
2013-03-29 19:00:00,49.3,23.3,30.18,NW,315,0.7,2.5,36,0.00,,,0.00,WUHU216HW,2013-03-29 23:00:00,
2013-03-29 19:05:00,49.1,23.1,30.18,NW,315,2.0,2.5,36,0.00,,,0.00,WUHU216HW,2013-03-29 23:05:00,
2013-03-29 19:10:00,49.0,23.7,30.18,NW,315,0.9,2.5,37,0.00,,,0.00,WUHU216HW,2013-03-29 23:10:00,
2013-03-29 19:15:00,48.8,24.1,30.18,NW,315,0.0,1.8,38,0.00,,,0.00,WUHU216HW,2013-03-29 23:15:00,
2013-03-29 19:20:00,48.6,24.0,30.19,West,270,2.2,2.9,38,0.00,,,0.00,WUHU216HW,2013-03-29 23:20:00,
2013-03-29 19:25:00,48.4,23.9,30.18,NNW,338,1.3,2.9,38,0.00,,,0.00,WUHU216HW,2013-03-29 23:25:00,
2013-03-29 19:30:00,48.2,23.7,30.19,WNW,293,1.8,4.5,38,0.00,,,0.00,WUHU216HW,2013-03-29 23:30:00,
2013-03-29 19:35:00,48.1,23.5,30.19,NW,315,1.1,4.5,38,0.00,,,0.00,WUHU216HW,2013-03-29 23:35:00,
2013-03-29 19:40:00,47.9,23.4,30.19,NW,315,0.2,3.1,38,0.00,,,0.00,WUHU216HW,2013-03-29 23:40:00,
2013-03-29 19:45:00,47.7,23.2,30.19,NW,315,1.6,1.8,38,0.00,,,0.00,WUHU216HW,2013-03-29 23:45:00,
2013-03-29 19:50:00,47.5,23.0,30.19,WNW,293,0.7,1.6,38,0.00,,,0.00,WUHU216HW,2013-03-29 23:50:00,
2013-03-29 19:55:00,47.5,23.7,30.19,WNW,293,1.1,1.8,39,0.00,,,0.00,WUHU216HW,2013-03-29 23:55:00,
2013-03-29 20:00:00,47.3,23.6,30.19,WNW,293,0.4,1.8,39,0.00,,,0.00,WUHU216HW,2013-03-30 00:00:00,
2013-03-29 20:05:00,47.2,23.4,30.19,WNW,293,0.0,1.8,39,0.00,,,0.00,WUHU216HW,2013-03-30 00:05:00,
2013-03-29 20:10:00,47.0,23.2,30.20,West,270,1.3,2.9,39,0.00,,,0.00,WUHU216HW,2013-03-30 00:10:00,
2013-03-29 20:15:00,47.0,23.9,30.20,NW,315,0.7,2.9,40,0.00,,,0.00,WUHU216HW,2013-03-30 00:15:00,
2013-03-29 20:20:00,46.8,23.8,30.20,NW,315,0.2,2.5,40,0.00,,,0.00,WUHU216HW,2013-03-30 00:20:00,
2013-03-29 20:25:00,46.6,23.6,30.20,West,270,1.1,2.5,40,0.00,,,0.00,WUHU216HW,2013-03-30 00:25:00,
2013-03-29 20:30:00,46.4,23.9,30.20,NW,315,0.2,1.6,41,0.00,,,0.00,WUHU216HW,2013-03-30 00:30:00,
2013-03-29 20:35:00,46.3,23.8,30.20,NW,315,0.0,1.3,41,0.00,,,0.00,WUHU216HW,2013-03-30 00:35:00,
2013-03-29 20:40:00,46.1,23.6,30.20,WNW,293,0.0,1.8,41,0.00,,,0.00,WUHU216HW,2013-03-30 00:40:00,
2013-03-29 20:45:00,46.1,24.1,30.20,NW,315,1.6,1.8,42,0.00,,,0.00,WUHU216HW,2013-03-30 00:45:00,
2013-03-29 20:50:00,45.9,24.0,30.20,WNW,293,0.7,1.6,42,0.00,,,0.00,WUHU216HW,2013-03-30 00:50:00,
2013-03-29 20:55:00,45.7,23.9,30.21,WNW,293,0.9,1.1,42,0.00,,,0.00,WUHU216HW,2013-03-30 00:55:00,
2013-03-29 21:00:00,45.7,24.4,30.21,North,0,0.4,2.2,43,0.00,,,0.00,WUHU216HW,2013-03-30 01:00:00,
2013-03-29 21:05:00,45.5,24.2,30.21,WNW,293,1.8,2.2,43,0.00,,,0.00,WUHU216HW,2013-03-30 01:05:00,
2013-03-29 21:10:00,45.2,23.9,30.21,West,270,0.4,1.8,43,0.00,,,0.00,WUHU216HW,2013-03-30 01:10:00,
2013-03-29 21:15:00,45.0,23.8,30.22,WSW,248,0.2,1.1,43,0.00,,,0.00,WUHU216HW,2013-03-30 01:15:00,
2013-03-29 21:20:00,44.8,24.1,30.22,NW,315,0.4,1.3,44,0.00,,,0.00,WUHU216HW,2013-03-30 01:20:00,
2013-03-29 21:25:00,44.6,23.9,30.22,West,270,0.2,1.3,44,0.00,,,0.00,WUHU216HW,2013-03-30 01:25:00,
2013-03-29 21:30:00,44.5,23.8,30.22,NNW,338,0.4,0.4,44,0.00,,,0.00,WUHU216HW,2013-03-30 01:30:00,
2013-03-29 21:35:00,44.3,23.6,30.22,NW,315,0.0,1.8,44,0.00,,,0.00,WUHU216HW,2013-03-30 01:35:00,
2013-03-29 21:40:00,44.3,24.1,30.22,NW,315,0.0,1.8,45,0.00,,,0.00,WUHU216HW,2013-03-30 01:40:00,
2013-03-29 21:45:00,44.1,24.0,30.22,NW,315,1.1,1.1,45,0.00,,,0.00,WUHU216HW,2013-03-30 01:45:00,
2013-03-29 21:50:00,43.9,23.9,30.23,NNW,338,0.4,1.1,45,0.00,,,0.00,WUHU216HW,2013-03-30 01:50:00,
2013-03-29 21:55:00,43.9,23.9,30.23,NW,315,0.2,1.6,45,0.00,,,0.00,WUHU216HW,2013-03-30 01:55:00,
2013-03-29 22:00:00,43.7,24.2,30.23,NNW,338,1.1,1.6,46,0.00,,,0.00,WUHU216HW,2013-03-30 02:00:00,
2013-03-29 22:05:00,43.7,24.2,30.23,WNW,293,0.0,2.0,46,0.00,,,0.00,WUHU216HW,2013-03-30 02:05:00,
2013-03-29 22:10:00,43.7,24.2,30.23,NNE,23,0.2,2.0,46,0.00,,,0.00,WUHU216HW,2013-03-30 02:10:00,
2013-03-29 22:15:00,43.6,24.0,30.23,ENE,68,1.8,4.7,46,0.00,,,0.00,WUHU216HW,2013-03-30 02:15:00,
2013-03-29 22:20:00,43.4,23.9,30.23,North,0,0.7,4.7,46,0.00,,,0.00,WUHU216HW,2013-03-30 02:20:00,
2013-03-29 22:25:00,43.0,23.6,30.23,ESE,113,0.7,1.6,46,0.00,,,0.00,WUHU216HW,2013-03-30 02:25:00,
2013-03-29 22:30:00,42.8,23.9,30.23,NW,315,0.0,1.6,47,0.00,,,0.00,WUHU216HW,2013-03-30 02:30:00,
2013-03-29 22:35:00,42.7,23.8,30.24,NW,315,0.7,1.8,47,0.00,,,0.00,WUHU216HW,2013-03-30 02:35:00,
2013-03-29 22:40:00,42.3,23.4,30.24,North,0,0.0,1.8,47,0.00,,,0.00,WUHU216HW,2013-03-30 02:40:00,
2013-03-29 22:45:00,42.1,23.8,30.24,WNW,293,0.0,1.3,48,0.00,,,0.00,WUHU216HW,2013-03-30 02:45:00,
2013-03-29 22:50:00,41.9,23.6,30.24,NNW,338,0.9,1.1,48,0.00,,,0.00,WUHU216HW,2013-03-30 02:50:00,
2013-03-29 22:55:00,41.8,23.4,30.24,NNW,338,0.2,1.1,48,0.00,,,0.00,WUHU216HW,2013-03-30 02:55:00,
2013-03-29 23:00:00,41.4,23.0,30.24,NW,315,1.1,1.1,48,0.00,,,0.00,WUHU216HW,2013-03-30 03:00:00,
2013-03-29 23:05:00,41.4,23.0,30.24,NW,315,0.0,1.1,48,0.00,,,0.00,WUHU216HW,2013-03-30 03:05:00,
2013-03-29 23:10:00,41.0,22.7,30.24,NW,315,0.4,0.7,48,0.00,,,0.00,WUHU216HW,2013-03-30 03:10:00,
2013-03-29 23:15:00,41.0,22.7,30.24,WNW,293,0.0,0.7,48,0.00,,,0.00,WUHU216HW,2013-03-30 03:15:00,
2013-03-29 23:20:00,40.7,22.4,30.24,NNW,338,0.0,0.4,48,0.00,,,0.00,WUHU216HW,2013-03-30 03:20:00,
2013-03-29 23:25:00,40.5,22.8,30.23,NNW,338,0.0,1.1,49,0.00,,,0.00,WUHU216HW,2013-03-30 03:25:00,
2013-03-29 23:30:00,40.5,22.8,30.23,NW,315,0.0,1.1,49,0.00,,,0.00,WUHU216HW,2013-03-30 03:30:00,
2013-03-29 23:35:00,40.1,22.4,30.23,NW,315,0.0,0.4,49,0.00,,,0.00,WUHU216HW,2013-03-30 03:35:00,
2013-03-29 23:40:00,40.0,22.2,30.24,NW,315,0.2,0.4,49,0.00,,,0.00,WUHU216HW,2013-03-30 03:40:00,
2013-03-29 23:45:00,39.8,22.2,30.24,WNW,293,0.2,0.7,49,0.00,,,0.00,WUHU216HW,2013-03-30 03:45:00,
2013-03-29 23:50:00,39.6,22.5,30.24,West,270,0.2,0.7,50,0.00,,,0.00,WUHU216HW,2013-03-30 03:50:00,
2013-03-29 23:55:00,39.2,22.1,30.24,West,270,0.0,0.2,50,0.00,,,0.00,WUHU216HW,2013-03-30 03:55:00,